Regional Weather Roundup
Issued by NWS

Home | Current Version | Previous Version | Text Only | Print | Product List | Glossary Off
Versions: 1 2 3 4 5 6 7 8 9 10 11 12 13 14 15 16 17 18 19 20 21 22 23 24 25 26 27 28 29 30 31 32 33 34 35 36 37 38 39 40 41 42 43 44 45 46 47 48 49 50

000
ASUS45 KCYS 020410
RWRWY

WYOMING REGIONAL WEATHER ROUNDUP
NATIONAL WEATHER SERVICE CHEYENNE WY
1000 PM MDT MON JUN 01 2015

NOTE:  "FAIR" INDICATES FEW OR NO CLOUDS BELOW 12,000 FEET
WITH NO SIGNIFICANT WEATHER AND/OR OBSTRUCTIONS TO VISIBILITY.

WYZ001-020500-
...YELLOWSTONE NATIONAL PARK...

CITY           SKY/WX    TMP DP  RH WIND       PRES   REMARKS
LK YELLOWSTONE   N/A     42  40  92 CALM      30.14F
W YELLOWSTONE  NOT AVBL

$$
WYZ002>013-054>058-071-098>099-020500-
...NORTHERN WYOMING...

CITY           SKY/WX    TMP DP  RH WIND       PRES   REMARKS
JACKSON        CLOUDY    48  45  87 N3        30.10S
CODY           CLOUDY    55  45  67 SW17G37   29.98R
GREYBULL       MOCLDY    66  46  48 NW33G41   29.95R
WORLAND        MOCLDY    69  48  47 NW17G33   29.93R
SHERIDAN       CLOUDY    59  52  77 NW6       29.82R
BUFFALO        MOCLDY    65  43  44 SW12      29.89R
GILLETTE       MOCLDY    63  49  60 S10       29.85S
HULETT         FAIR      72  45  37 S23G31    29.84S
NEWCASTLE      FAIR      68  46  45 MISG      29.91F

$$
WYZ014>020-022>026-101>103-020500-
...CENTRAL WYOMING...

CITY           SKY/WX    TMP DP  RH WIND       PRES   REMARKS
BIG PINEY      MOCLDY    52  39  61 NE16      30.10R
PINEDALE       CLOUDY    50  39  66 NW9       30.11S
DUBOIS         LGT RAIN  46  41  81 NW6       30.11F
LANDER         MOCLDY    67  37  33 W20G35    29.96R
RIVERTON       CLOUDY    63  42  46 NW39G47   29.99R
CASPER         CLOUDY    66  41  40 S15       29.93F
DOUGLAS        CLOUDY    63  48  58 S12       29.97F

$$
WYZ021-027>030-104>119-020500-
...SOUTHERN WYOMING...

CITY           SKY/WX    TMP DP  RH WIND       PRES   REMARKS
EVANSTON       MOCLDY    55  39  54 N12       30.09R
KEMMERER       CLEAR     52  37  58 N10       30.10R
FORT BRIDGER   CLEAR     55  39  54 CALM      30.12R
ROCK SPRINGS   CLOUDY    62  36  37 NW15      30.05R
DIXON          FAIR      65  40  40 NE8       30.06R
RAWLINS        PTCLDY    54  49  83 NW6       30.06R
SARATOGA       FAIR      57  43  58 S9        30.09R
LARAMIE        CLOUDY    62  38  40 SW8G20    30.13R
CHEYENNE       MOCLDY    63  49  60 S9        30.06R
TORRINGTON     MOCLDY    63  55  75 SE5       29.96R
PINE BLUFFS    FAIR      55  52  88 NE5       30.03R

$$


USA.gov is the U.S. government's official web portal to all federal, state and local government web resources and services.